Precipitable_Water
1.46 1.36 1.32 1.21 1.09 1.05 1.00 1.11 1.16 1.15 1.19 1.10 1.02 0.96 0.88 0.86 0.85 0.83 0.83 0.85 0.86 0.83 0.79 0.76 0.82 0.83 0.83 0.80 0.77 0.76 0.78 0.80 0.81
1.51 1.40 1.29 1.25 1.07 0.98 0.95 0.99 1.00 1.04 1.09 1.02 0.97 0.89 0.82 0.82 0.82 0.83 0.85 0.86 0.88 0.87 0.83 0.83 0.80 0.82 0.81 0.84 0.84 0.82 0.82 0.82 0.83
1.56 1.45 1.29 1.30 1.03 0.89 0.88 0.93 0.92 0.95 0.94 0.91 0.87 0.78 0.72 0.76 0.80 0.82 0.85 0.89 0.92 0.91 0.89 0.84 0.84 0.83 0.80 0.81 0.82 0.82 0.82 0.82 0.80
1.63 1.46 1.32 1.32 1.07 0.81 0.86 0.86 0.86 0.86 0.86 0.81 0.78 0.70 0.70 0.74 0.76 0.79 0.86 0.87 0.90 0.90 0.86 0.83 0.84 0.82 0.82 0.78 0.78 0.79 0.80 0.83 0.80
1.70 1.49 1.36 1.36 1.14 0.87 0.80 0.81 0.81 0.79 0.77 0.73 0.70 0.68 0.68 0.73 0.74 0.78 0.83 0.88 0.85 0.84 0.86 0.83 0.83 0.81 0.81 0.80 0.77 0.78 0.77 0.76 0.78
1.74 1.51 1.43 1.44 1.27 0.94 0.81 0.80 0.80 0.74 0.71 0.69 0.67 0.66 0.71 0.73 0.75 0.80 0.78 0.85 0.85 0.83 0.81 0.79 0.79 0.78 0.79 0.79 0.79 0.78 0.76 0.77 0.77
1.73 1.56 1.48 1.54 1.37 1.04 0.87 0.81 0.80 0.73 0.70 0.69 0.68 0.70 0.71 0.74 0.75 0.79 0.80 0.80 0.82 0.82 0.80 0.77 0.77 0.76 0.77 0.73 0.76 0.74 0.74 0.73 0.73
1.68 1.62 1.55 1.57 1.44 1.20 0.93 0.84 0.76 0.70 0.69 0.66 0.67 0.71 0.72 0.74 0.76 0.77 0.80 0.80 0.79 0.76 0.77 0.78 0.76 0.75 0.75 0.75 0.75 0.74 0.73 0.72 0.71
1.68 1.60 1.57 1.54 1.46 1.26 0.98 0.84 0.74 0.69 0.68 0.67 0.67 0.69 0.70 0.73 0.75 0.77 0.80 0.79 0.77 0.76 0.73 0.75 0.75 0.74 0.74 0.74 0.74 0.73 0.74 0.72 0.71
1.74 1.61 1.58 1.57 1.52 1.34 1.10 0.89 0.73 0.64 0.63 0.66 0.66 0.67 0.70 0.72 0.75 0.77 0.79 0.78 0.76 0.76 0.75 0.73 0.72 0.73 0.73 0.72 0.72 0.72 0.71 0.70 0.70
1.77 1.66 1.58 1.60 1.57 1.45 1.27 0.97 0.76 0.62 0.62 0.61 0.66 0.67 0.70 0.72 0.73 0.76 0.78 0.76 0.75 0.75 0.74 0.74 0.72 0.71 0.71 0.70 0.70 0.70 0.69 0.68 0.70
1.73 1.71 1.55 1.61 1.63 1.56 1.39 1.12 0.86 0.67 0.64 0.61 0.66 0.69 0.71 0.71 0.70 0.73 0.74 0.75 0.75 0.75 0.74 0.73 0.72 0.71 0.70 0.69 0.68 0.68 0.68 0.68 0.70
1.63 1.55 1.63 1.62 1.64 1.59 1.44 1.19 0.96 0.72 0.63 0.62 0.65 0.68 0.71 0.71 0.71 0.71 0.71 0.72 0.73 0.75 0.75 0.72 0.73 0.73 0.71 0.69 0.68 0.66 0.67 0.69 0.70
1.58 1.62 1.73 1.62 1.61 1.58 1.51 1.27 1.08 0.87 0.70 0.62 0.64 0.67 0.70 0.72 0.72 0.69 0.68 0.70 0.70 0.71 0.72 0.70 0.70 0.71 0.70 0.69 0.69 0.67 0.66 0.67 0.67
1.52 1.62 1.73 1.64 1.58 1.55 1.51 1.38 1.16 1.01 0.86 0.71 0.63 0.65 0.69 0.71 0.70 0.69 0.68 0.68 0.68 0.71 0.68 0.68 0.68 0.68 0.70 0.70 0.69 0.66 0.65 0.64 0.64
1.48 1.54 1.60 1.68 1.57 1.56 1.53 1.44 1.21 1.07 0.98 0.77 0.65 0.58 0.62 0.65 0.67 0.70 0.66 0.64 0.66 0.68 0.67 0.68 0.67 0.66 0.68 0.69 0.68 0.67 0.65 0.63 0.62
1.38 1.47 1.52 1.62 1.61 1.58 1.53 1.43 1.26 1.15 1.06 0.79 0.70 0.56 0.57 0.56 0.60 0.63 0.63 0.62 0.63 0.62 0.65 0.65 0.64 0.64 0.65 0.68 0.67 0.68 0.67 0.64 0.63
1.33 1.41 1.46 1.54 1.62 1.60 1.55 1.49 1.34 1.10 1.10 1.02 0.76 0.63 0.50 0.55 0.58 0.55 0.59 0.60 0.58 0.60 0.62 0.62 0.62 0.62 0.64 0.63 0.64 0.64 0.65 0.65 0.62
1.27 1.37 1.44 1.45 1.59 1.60 1.61 1.60 1.47 1.24 1.07 1.07 0.97 0.84 0.73 0.56 0.47 0.58 0.58 0.60 0.58 0.59 0.59 0.59 0.61 0.61 0.63 0.64 0.63 0.60 0.59 0.58 0.59
1.21 1.31 1.38 1.46 1.57 1.57 1.61 1.60 1.55 1.39 1.21 1.09 1.01 0.89 0.82 0.76 0.58 0.46 0.51 0.58 0.59 0.60 0.59 0.58 0.59 0.60 0.62 0.64 0.65 0.61 0.56 0.51 0.52
Wind_Speed
20 19 18 17 16 16 15 15 15 14 13 13 13 13 12 12 12 13 13 14 14 14 14 14 15 15 15 15 15 16 16 16 16
23 21 19 18 18 17 16 16 15 15 13 12 12 11 11 11 12 12 13 14 14 15 15 15 15 15 15 16 16 16 16 16 16
26 24 22 20 20 18 18 17 16 15 14 13 12 11 11 11 11 12 12 13 13 14 14 15 15 15 14 14 15 15 15 15 15
29 27 25 23 22 20 20 19 18 16 15 14 13 12 11 10 11 11 12 12 12 13 13 13 13 13 13 13 13 13 13 13 13
32 30 28 26 24 22 21 20 19 18 17 15 14 12 12 11 10 10 11 11 11 11 12 12 12 12 12 12 12 11 11 11 11
35 33 31 28 26 24 23 22 21 20 18 17 16 14 12 11 10 10 10 10 10 10 10 9 9 10 10 10 10 10 9 9 9
37 36 34 32 29 26 25 24 23 22 20 19 17 14 13 12 11 10 10 9 9 8 8 7 7 7 8 8 8 7 7 7 7
40 39 37 34 32 28 27 26 25 24 22 21 19 17 15 13 12 12 11 9 9 8 7 6 6 6 5 5 5 5 5 6 6
43 41 40 37 34 31 29 29 27 26 24 23 21 19 17 15 13 13 12 10 9 8 7 5 5 4 4 3 3 3 4 4 5
45 44 43 40 37 35 32 30 29 28 27 25 23 21 19 17 15 14 13 12 10 9 7 6 5 4 3 2 1 0 2 3 4
48 46 45 43 40 37 35 32 31 30 29 27 26 24 22 19 17 16 15 13 11 10 9 7 6 5 4 4 3 2 2 3 4
40 48 48 47 44 41 38 35 33 31 30 29 28 26 24 22 20 18 17 15 14 12 10 9 7 6 5 5 5 4 4 4 5
40 42 53 50 48 44 41 38 35 33 32 31 29 28 26 24 22 21 19 17 16 14 13 11 9 8 7 7 6 6 5 6 6
40 41 51 53 51 48 45 41 39 36 34 32 31 29 28 26 25 23 21 19 18 16 15 13 12 11 10 9 8 8 7 7 7
39 42 45 55 53 51 48 45 42 39 37 34 33 31 30 28 27 25 23 22 20 19 17 16 15 13 12 11 10 10 9 9 9
37 39 41 56 57 55 51 48 46 43 40 37 33 32 31 30 29 27 26 24 23 21 20 19 17 16 15 14 13 12 12 11 11
41 38 38 51 58 58 55 52 48 46 44 39 36 33 32 32 31 30 28 27 26 24 23 22 20 18 17 16 16 15 14 13 13
43 39 42 40 56 59 58 55 52 48 47 44 38 35 33 32 33 33 31 30 28 27 26 24 23 21 20 19 18 17 16 16 16
48 44 41 45 53 61 60 58 55 52 50 47 43 38 34 33 32 34 34 32 31 30 28 27 26 24 23 22 20 20 19 18 18
50 50 44 41 50 57 63 60 58 55 53 50 46 41 38 35 32 32 34 35 34 33 32 30 28 27 26 24 23 22 21 21 21
Wind_Direction
197 191 186 181 177 173 169 165 159 152 143 135 127 122 116 109 106 103 101 98 98 99 98 97 95 93 91 89 87 85 83 82 80
200 197 193 189 184 182 178 173 169 164 157 149 140 132 124 118 114 109 105 102 100 98 98 98 97 93 92 90 88 87 85 83 81
203 201 198 195 191 188 185 182 177 173 167 161 153 144 135 126 121 117 112 109 105 101 99 99 98 95 93 92 89 87 85 82 79
206 204 201 198 195 193 190 187 183 179 176 171 164 156 148 137 131 124 119 116 111 109 104 101 100 97 95 92 91 88 85 81 78
208 206 204 202 200 196 193 191 188 186 183 178 173 166 159 151 144 136 131 126 120 116 111 107 103 99 97 93 91 88 85 80 74
209 207 206 204 202 200 198 196 194 191 188 185 180 175 172 165 160 152 145 136 130 126 120 114 108 104 99 96 90 87 82 76 68
211 209 207 206 204 203 201 199 197 195 194 191 187 187 182 178 173 168 161 153 145 139 134 124 118 113 105 100 90 85 78 69 59
211 209 208 207 206 205 203 202 202 201 199 196 196 193 190 188 184 179 175 170 164 158 151 143 133 125 116 104 92 82 73 60 49
211 210 209 208 207 206 206 206 205 204 203 202 201 198 198 196 193 189 186 183 179 176 173 166 160 152 144 126 100 77 62 44 32
213 212 210 210 209 209 208 207 207 206 206 205 204 204 203 201 199 197 195 193 191 189 188 187 187 189 191 192 191 43 22 18 13
213 213 212 211 210 210 210 210 209 208 208 208 207 207 207 206 205 202 201 200 200 201 202 204 207 212 218 227 236 261 300 334 346
214 215 213 212 211 212 212 211 210 210 210 210 209 209 209 209 208 208 207 208 208 210 212 214 219 225 231 238 247 259 276 300 321
218 219 213 212 212 212 213 213 212 212 211 211 211 211 211 211 211 212 213 213 215 217 219 222 226 232 240 245 251 259 268 286 301
221 220 214 212 213 214 214 214 213 212 212 212 213 213 214 214 215 215 216 218 220 222 224 228 232 237 242 248 254 260 267 279 291
222 220 218 214 214 214 215 214 215 214 214 213 214 215 216 217 218 219 220 222 224 227 228 232 236 240 244 249 254 259 266 275 284
224 222 222 215 214 215 215 215 215 215 214 213 215 217 219 219 220 222 224 226 227 229 231 235 238 241 245 250 253 259 266 273 280
223 221 223 217 215 214 215 215 215 216 215 217 217 220 222 223 224 225 226 228 230 232 234 237 239 243 246 250 253 258 264 271 278
229 227 226 221 216 215 215 215 216 217 217 218 220 221 225 223 226 227 229 230 232 234 236 238 241 243 247 249 253 258 263 269 276
230 228 229 227 218 216 216 217 217 218 218 218 222 224 223 225 228 229 230 232 234 235 237 239 241 244 247 250 254 257 263 269 275
231 229 229 228 220 219 217 218 217 219 219 220 221 223 225 226 229 231 230 233 235 236 238 239 241 244 247 250 254 258 263 268 274